Portland, ME

5:09 AM EDT on June 27, 2017 (GMT -0400)
Portland International

Weather History for KPWM - March, 2014

Change the Weather History Date:

Sunday, March 16, 2014

  Actual Average Record
Temperature  
Mean Temperature 26 °F 33 °F  
Max Temperature 37 °F 42 °F 59 °F (1973)
Min Temperature 14 °F 25 °F 5 °F (1956)
Degree Days  
Heating Degree Days 39 32  
Month to date heating degree days 647 542  
Since 1 July heating degree days 5886 5584  
Cooling Degree Days 0 0  
Month to date cooling degree days 0 0  
Year to date cooling degree days 0 0  
Moisture  
Dew Point 6 °F    
Average Humidity 44    
Maximum Humidity 56    
Minimum Humidity 32    
Precipitation  
Precipitation 0.00 in 0.14 in 3.30 in (1937)
Month to date precipitation 1.16 2.07  
Year to date precipitation 9.48 8.70  
Snow  
Snow 0.00 in 0.50 in 7.00 in (1899)
Month to date snowfall 2.5 7.7  
Since 1 July snowfall 81.0 54.1  
Snow Depth 5.00 in    
Sea Level Pressure  
Sea Level Pressure 30.03 in    
Wind  
Wind Speed 13 mph (WNW)    
Max Wind Speed 25 mph    
Max Gust Speed 32 mph    
Visibility 10 miles    
Events      
T = Trace of Precipitation, MM = Missing Value Source: NWS Daily Summary

Daily Weather History Graph

Daily Weather History Graph

Search for Another Location

Airport or City:

Trip Planner

Search our weather history database for the weather conditions in past years. The results will help you decide how hot, cold, wet, or windy it might be!

Date:

Astronomy

Mar. 16, 2014 Rise Set
Actual Time 6:51 AM EDT 6:48 PM EDT
Civil Twilight 6:23 AM EDT 7:17 PM EDT
Nautical Twilight 5:49 AM EDT 7:50 PM EDT
Astronomical Twilight 5:15 AM EDT 8:24 PM EDT
Moon 7:04 PM EDT (3/16) 6:32 AM EDT (3/16)
Length of Visible Light 12h 54m
Length of Day
11h 57m
Full, 100% of the Moon is Illuminated
Mar 16
Full
Mar 16
Full
Mar 23
Last Quarter
Mar 30
New
Apr 7
First Quarter

Hourly Weather History & Observations

Time (EDT) Temp. Windchill Dew Point Humidity Pressure Visibility Wind Dir Wind Speed Gust Speed Precip Events Conditions
12:51 AM 37.9 °F 29.2 °F 21.9 °F 53% 29.78 in 10.0 mi West 15.0 mph 24.2 mph N/A   Clear
1:51 AM 36.0 °F - 21.0 °F 55% 29.82 in 10.0 mi North - - N/A   Partly Cloudy
2:51 AM 34.0 °F - 19.9 °F 56% 29.84 in 10.0 mi North - - N/A   Overcast
3:51 AM 32.0 °F 22.5 °F 17.1 °F 54% 29.86 in 10.0 mi NW 12.7 mph - N/A   Scattered Clouds
4:51 AM 30.0 °F 20.0 °F 15.1 °F 54% 29.90 in 10.0 mi WNW 12.7 mph - N/A   Partly Cloudy
5:51 AM 28.0 °F 16.5 °F 12.9 °F 53% 29.94 in 10.0 mi NW 15.0 mph 19.6 mph N/A   Mostly Cloudy
6:51 AM 26.1 °F 16.2 °F 10.0 °F 51% 29.97 in 10.0 mi NW 10.4 mph - N/A   Partly Cloudy
7:51 AM 25.0 °F 12.6 °F 7.0 °F 46% 30.00 in 10.0 mi WNW 15.0 mph - N/A   Partly Cloudy
8:51 AM 25.0 °F 12.2 °F 6.1 °F 45% 30.03 in 10.0 mi WNW 16.1 mph - N/A   Partly Cloudy
9:51 AM 24.1 °F 10.6 °F 6.1 °F 46% 30.05 in 10.0 mi WNW 17.3 mph 25.3 mph N/A   Partly Cloudy
10:51 AM 25.0 °F 11.3 °F 7.0 °F 46% 30.06 in 10.0 mi WNW 18.4 mph 23.0 mph N/A   Partly Cloudy
11:51 AM 26.1 °F 14.5 °F 3.9 °F 39% 30.07 in 10.0 mi NW 13.8 mph 20.7 mph N/A   Partly Cloudy
12:51 PM 27.0 °F 18.7 °F 5.0 °F 39% 30.06 in 10.0 mi West 8.1 mph 18.4 mph N/A   Partly Cloudy
1:51 PM 27.0 °F 13.5 °F 3.9 °F 37% 30.06 in 10.0 mi NW 19.6 mph 23.0 mph N/A   Partly Cloudy
2:51 PM 27.0 °F 14.3 °F 5.0 °F 39% 30.06 in 10.0 mi NW 17.3 mph 23.0 mph N/A   Clear
3:51 PM 26.1 °F 14.5 °F 1.9 °F 35% 30.06 in 10.0 mi NNW 13.8 mph - N/A   Mostly Cloudy
4:51 PM 26.1 °F 12.7 °F 1.9 °F 35% 30.09 in 10.0 mi West 18.4 mph 27.6 mph N/A   Clear
5:51 PM 24.1 °F 11.5 °F -2.9 °F 31% 30.10 in 10.0 mi West 15.0 mph - N/A   Partly Cloudy
6:51 PM 21.9 °F 6.2 °F -2.0 °F 35% 30.11 in 10.0 mi WNW 21.9 mph - N/A   Clear
7:51 PM 19.9 °F 7.9 °F -0.9 °F 40% 30.15 in 10.0 mi WNW 11.5 mph - N/A   Clear
8:51 PM 19.0 °F 8.2 °F -2.9 °F 38% 30.17 in 10.0 mi WNW 9.2 mph - N/A   Clear
9:51 PM 18.0 °F 7.7 °F -4.0 °F 38% 30.20 in 10.0 mi West 8.1 mph - N/A   Clear
10:51 PM 17.1 °F 7.6 °F -4.0 °F 39% 30.21 in 10.0 mi West 6.9 mph - N/A   Clear
11:51 PM 16.0 °F 6.3 °F -6.0 °F 38% 30.22 in 10.0 mi NW 6.9 mph - N/A   Clear